Wind_Speed
9 9 9 8 8 7 6 6 6 6 6 6 5 5 5 5 5 4 4 3 3 2 2 3 3 4 4 4 4 5 5 5 5 5 5 5 6 6 7 7 6 7 7
9 9 9 8 8 7 6 5 5 5 5 6 5 5 5 5 5 4 4 3 2 2 1 2 3 4 4 4 4 5 5 4 4 4 5 5 5 6 7 7 6 6 6
8 8 8 8 8 7 6 5 5 5 5 4 5 4 5 5 4 4 3 2 2 2 1 2 3 3 4 4 5 4 5 5 5 4 5 5 5 5 5 5 5 5 6
8 8 7 8 7 7 6 5 5 5 4 4 4 4 4 4 4 3 3 2 2 2 2 2 3 3 4 4 4 4 4 5 5 4 4 4 5 5 5 5 5 5 6
8 7 7 7 7 7 6 5 5 5 4 4 4 4 4 4 3 3 2 2 2 3 3 3 3 3 4 4 4 4 4 4 4 4 4 4 5 5 5 5 5 6 6
7 7 6 6 6 6 5 5 4 4 4 4 4 4 4 4 3 3 2 2 2 3 3 3 3 3 3 3 3 3 4 3 3 4 4 4 5 5 5 6 6 7 6
7 7 6 5 5 5 5 4 4 4 4 3 3 3 4 4 3 3 2 1 2 2 3 3 3 3 3 3 3 2 3 3 3 4 4 4 5 5 5 5 7 7 7
7 6 6 5 5 5 4 3 3 4 4 3 3 3 3 3 3 3 2 1 1 1 2 2 3 3 2 2 2 2 2 3 3 3 3 3 3 4 5 5 6 6 7
6 5 5 5 5 5 4 3 3 3 3 3 2 2 2 2 2 2 2 1 1 1 2 3 2 2 2 2 2 2 2 3 3 3 3 3 3 3 5 5 6 6 7
6 5 6 6 5 5 5 4 3 3 3 3 2 1 1 1 1 1 2 2 2 2 2 3 3 2 2 3 2 2 2 2 2 3 3 4 4 4 5 5 6 6 6
6 6 6 6 6 5 4 4 3 3 3 2 2 2 1 0 1 1 1 2 2 2 3 3 3 4 4 4 3 3 3 3 3 4 4 4 4 5 5 6 7 6 7
6 6 5 5 5 5 5 4 4 4 3 2 2 1 1 1 1 1 2 3 3 3 4 3 4 5 4 4 4 4 4 4 4 4 4 5 5 5 6 6 7 7 8
6 6 6 6 6 5 5 4 4 4 3 2 2 1 1 1 2 2 3 3 4 4 4 4 3 3 3 3 4 4 4 4 4 4 5 5 6 6 7 7 7 8 8
6 6 6 6 6 5 5 5 4 4 4 3 3 2 2 2 2 3 4 4 4 4 4 4 4 4 4 4 4 4 5 5 5 6 6 6 6 6 7 7 8 8 9
7 6 6 6 6 6 5 5 5 4 4 4 4 3 3 3 3 3 4 5 5 5 5 5 5 5 5 5 5 5 5 5 6 6 6 6 7 7 7 7 8 8 8
7 7 7 6 6 7 7 6 6 5 5 5 6 5 5 5 5 5 5 6 6 6 6 6 5 5 5 5 6 6 6 7 7 7 7 7 7 7 7 7 7 7 8
8 8 7 7 8 8 8 7 6 6 6 6 6 6 7 7 7 7 7 7 7 8 7 7 6 6 6 6 6 7 7 7 8 8 9 8 8 8 8 8 8 7 8
9 9 9 9 9 9 9 8 7 7 7 7 7 7 7 7 7 7 7 7 8 8 8 7 7 7 7 7 7 7 7 7 7 8 9 9 8 8 8 8 7 7 7
10 10 10 10 10 10 10 10 9 9 8 8 8 9 8 8 8 8 8 8 9 9 9 9 9 8 8 8 8 8 8 8 8 8 8 9 9 8 7 8 8 8 9
11 11 11 11 11 11 12 12 11 9 9 9 9 9 10 10 9 9 9 9 9 9 10 10 10 9 9 8 9 9 9 9 9 9 8 9 9 9 9 9 9 9 9
12 12 12 12 12 13 12 11 10 10 10 10 9 9 10 10 9 9 10 10 10 11 11 11 11 10 9 10 10 10 10 10 9 9 10 10 10 10 10 10 10 10 10
14 14 13 12 12 12 12 11 11 11 11 10 10 9 9 10 10 10 11 11 11 11 11 12 12 11 11 11 11 11 11 10 10 9 10 10 10 10 11 11 11 10 10
15 14 13 13 12 12 12 12 11 11 11 12 12 10 10 10 11 12 11 11 11 11 11 11 12 12 12 12 12 12 12 11 10 9 10 10 11 11 11 12 12 12 11
16 15 14 12 12 12 12 12 12 12 11 12 13 11 10 10 11 12 11 10 10 10 11 11 11 11 12 12 12 13 13 12 11 11 11 11 12 12 12 13 13 13 13
16 16 15 14 13 12 12 12 13 13 12 12 12 11 10 10 10 10 10 10 10 10 11 11 11 11 11 11 12 12 14 13 13 13 12 12 13 13 13 13 13 13 13
18 17 15 15 14 13 13 13 13 12 12 12 11 11 10 10 9 9 9 10 10 10 10 10 11 11 10 10 11 12 13 13 13 12 13 13 13 13 13 14 14 14 14
Wind_Direction
43 43 42 44 42 43 45 51 58 66 70 75 81 78 83 98 106 110 98 100 104 116 140 147 153 153 148 152 162 165 165 168 177 175 171 175 181 181 182 187 190 191 193
38 40 42 39 38 40 45 47 55 65 71 76 82 86 85 91 100 105 94 92 97 110 146 165 163 167 148 154 160 157 161 171 171 169 171 173 178 185 185 187 191 193 195
34 36 38 37 37 36 40 50 57 61 65 75 82 89 90 93 97 98 98 95 93 99 141 164 167 162 151 153 156 158 165 170 157 167 175 181 184 188 187 188 194 199 201
29 31 33 35 34 35 41 52 58 57 63 73 83 92 95 100 105 111 100 95 89 97 112 137 137 141 149 151 150 155 161 166 172 171 179 186 190 191 195 200 201 201 199
25 27 31 32 31 32 38 44 50 53 60 70 82 90 100 105 115 126 114 101 94 100 100 115 116 120 131 140 145 150 154 157 170 179 186 193 189 191 204 211 207 208 200
20 22 26 28 26 26 30 38 47 51 55 68 79 85 96 102 111 124 121 108 100 96 93 103 115 117 124 141 147 157 166 171 183 188 194 193 197 205 212 216 213 212 210
13 15 16 18 14 15 20 34 46 49 52 67 80 86 94 100 108 119 125 124 106 101 98 108 126 128 129 139 158 173 180 183 191 188 193 197 205 217 222 216 214 214 215
7 9 11 10 5 3 8 28 38 43 46 58 76 86 92 96 106 113 109 128 126 135 135 132 135 143 146 158 169 176 196 197 194 195 196 202 204 221 224 221 219 219 219
358 3 6 6 3 1 3 12 23 29 40 47 60 83 93 94 109 127 141 176 188 172 161 156 154 168 166 164 177 184 208 205 198 206 211 215 216 222 222 221 218 216 218
350 356 1 359 356 355 354 0 12 18 29 33 35 47 57 81 128 155 171 191 204 211 187 180 181 197 199 186 189 210 220 208 218 226 214 209 216 225 230 232 226 222 223
347 347 352 352 350 348 348 352 1 6 13 17 17 16 22 217 198 222 224 223 225 226 216 212 210 209 203 208 217 232 237 231 234 233 226 217 222 228 233 238 237 232 237
340 340 341 340 340 341 343 342 344 347 350 356 1 350 314 249 218 227 229 226 230 230 225 218 219 220 214 220 230 239 237 237 235 234 234 231 231 237 241 242 238 240 242
332 333 332 331 332 333 331 330 327 328 329 327 330 308 275 245 227 232 234 236 232 225 225 231 226 235 231 235 237 234 229 231 236 239 240 243 245 250 249 246 244 242 238
320 324 326 330 331 326 325 326 319 313 313 309 309 292 276 260 250 237 231 236 230 226 235 238 240 236 231 227 233 239 236 242 246 247 250 251 255 259 257 249 249 247 244
307 313 318 322 323 320 316 319 321 317 306 296 292 283 275 272 272 263 243 238 236 237 241 250 256 251 244 235 243 253 252 255 251 251 256 253 256 258 257 257 252 249 242
296 303 310 316 318 317 313 309 311 310 311 297 286 281 272 265 263 265 259 246 242 243 248 249 254 252 245 247 253 255 256 255 251 251 255 254 255 255 256 255 251 246 244
290 297 307 311 313 312 310 305 303 301 302 296 286 282 278 269 263 264 260 250 246 243 245 248 252 256 253 257 260 262 259 256 255 255 255 255 253 253 253 254 253 252 248
284 291 298 300 302 306 308 307 302 298 297 289 282 279 280 276 267 263 261 256 252 249 247 251 255 258 259 257 261 261 257 259 258 259 258 256 257 258 256 256 257 259 258
278 284 290 294 298 304 305 304 302 295 293 287 283 281 281 280 273 265 260 259 253 251 250 253 255 257 257 259 259 258 258 259 258 259 259 260 260 260 264 263 263 267 265
274 280 284 288 292 299 305 302 298 294 291 288 287 284 280 275 268 262 258 258 256 252 251 253 255 255 258 260 257 255 254 252 253 258 260 260 258 260 265 267 269 270 269
273 276 280 284 287 291 296 298 292 291 292 288 285 281 280 272 261 259 258 257 255 255 255 256 255 255 258 260 259 258 257 255 257 261 261 260 259 260 264 266 269 272 269
270 273 278 283 286 287 287 291 290 289 290 285 283 282 278 271 260 255 258 255 253 254 254 255 255 255 255 257 260 261 262 263 263 257 255 255 256 258 261 264 266 268 268
267 270 277 280 284 281 282 286 286 287 288 285 283 284 278 270 264 258 255 253 256 257 256 255 256 256 256 257 260 262 263 262 258 259 255 254 258 258 261 263 264 266 269
264 269 275 277 282 282 282 284 284 285 287 283 282 280 278 273 266 260 256 254 257 255 255 256 255 257 257 257 262 264 264 264 262 259 260 260 259 258 259 260 263 267 268
263 266 269 274 279 282 285 287 285 281 283 282 280 276 274 277 276 271 265 261 260 258 258 257 256 256 259 262 265 267 264 264 264 265 264 262 260 260 260 259 263 266 267
263 265 267 271 275 278 284 288 289 286 283 279 279 276 276 278 279 279 276 265 264 264 264 259 259 261 265 269 269 268 266 267 264 266 265 264 266 264 263 261 262 267 268
Height
5893 5891 5890 5889 5888 5887 5886 5885 5884 5883 5883 5882 5882 5881 5880 5880 5880 5880 5879 5879 5879 5878 5878 5878 5879 5879 5879 5879 5880 5880 5880 5881 5881 5882 5882 5883 5884 5884 5885 5885 5885 5886 5886
5894 5892 5891 5890 5889 5887 5886 5885 5884 5884 5883 5882 5882 5881 5881 5880 5880 5880 5879 5879 5879 5878 5878 5878 5878 5879 5879 5879 5879 5880 5880 5881 5881 5881 5882 5883 5883 5884 5885 5885 5885 5886 5886
5894 5892 5891 5890 5889 5887 5886 5885 5884 5884 5883 5882 5882 5881 5881 5880 5880 5880 5879 5879 5879 5878 5877 5877 5878 5878 5878 5879 5880 5880 5880 5881 5881 5882 5882 5882 5883 5884 5884 5885 5885 5886 5886
5894 5893 5891 5890 5889 5888 5887 5886 5885 5884 5883 5882 5882 5881 5881 5880 5880 5880 5879 5879 5879 5878 5878 5877 5878 5878 5878 5879 5880 5880 5881 5881 5882 5882 5882 5883 5883 5884 5884 5885 5885 5885 5885
5894 5893 5892 5890 5889 5888 5887 5886 5885 5884 5883 5882 5882 5881 5881 5881 5880 5880 5879 5879 5879 5878 5878 5878 5878 5879 5879 5879 5880 5880 5881 5881 5881 5882 5882 5883 5883 5883 5884 5884 5884 5885 5885
5894 5893 5892 5891 5890 5888 5887 5886 5885 5884 5883 5883 5882 5882 5881 5881 5880 5880 5880 5879 5879 5879 5879 5879 5879 5879 5879 5880 5880 5880 5881 5881 5881 5881 5882 5882 5883 5883 5883 5884 5884 5884 5884
5894 5893 5892 5891 5890 5889 5887 5886 5885 5884 5884 5883 5882 5882 5881 5881 5881 5880 5880 5879 5879 5879 5879 5879 5879 5879 5879 5880 5880 5880 5880 5881 5881 5881 5881 5882 5882 5882 5883 5883 5883 5883 5884
5894 5893 5891 5890 5890 5889 5887 5886 5885 5885 5884 5883 5882 5882 5881 5881 5881 5880 5880 5880 5879 5879 5879 5879 5879 5879 5879 5879 5880 5879 5880 5880 5880 5880 5881 5881 5881 5882 5882 5882 5882 5883 5883
5894 5892 5891 5890 5889 5888 5887 5886 5885 5885 5884 5883 5882 5882 5881 5881 5880 5880 5880 5880 5879 5879 5879 5879 5879 5879 5879 5879 5879 5879 5879 5879 5880 5880 5880 5881 5881 5881 5881 5881 5881 5882 5882
5893 5892 5891 5890 5889 5888 5887 5886 5885 5884 5883 5883 5882 5881 5881 5881 5880 5880 5879 5879 5879 5879 5879 5879 5879 5879 5879 5879 5879 5879 5879 5879 5879 5879 5880 5880 5880 5881 5881 5881 5881 5881 5881
5893 5892 5891 5889 5888 5887 5887 5885 5884 5884 5883 5882 5881 5881 5880 5880 5879 5879 5879 5879 5879 5878 5878 5878 5878 5878 5878 5878 5878 5878 5878 5878 5879 5879 5879 5879 5880 5880 5880 5880 5880 5880 5880
5893 5892 5890 5889 5888 5887 5886 5885 5884 5883 5882 5881 5880 5880 5879 5879 5879 5878 5878 5878 5878 5878 5877 5877 5877 5877 5877 5877 5877 5877 5877 5878 5878 5878 5878 5878 5879 5879 5879 5879 5879 5879 5879
5892 5891 5890 5888 5887 5886 5885 5884 5883 5882 5881 5880 5879 5879 5878 5878 5878 5877 5877 5877 5877 5877 5877 5877 5876 5876 5876 5877 5877 5877 5877 5877 5877 5877 5877 5877 5877 5878 5878 5878 5878 5878 5878
5891 5890 5888 5887 5886 5885 5884 5883 5882 5881 5880 5879 5878 5878 5877 5877 5877 5876 5876 5876 5876 5876 5876 5876 5876 5875 5876 5876 5876 5876 5876 5876 5876 5876 5876 5876 5876 5877 5876 5876 5876 5876 5876
5890 5889 5887 5886 5885 5884 5883 5882 5881 5880 5879 5878 5878 5877 5877 5876 5876 5875 5875 5875 5875 5875 5874 5874 5875 5875 5875 5875 5875 5875 5875 5875 5875 5875 5875 5875 5875 5875 5875 5875 5874 5874 5874
5888 5887 5886 5885 5884 5883 5882 5881 5880 5879 5878 5877 5876 5876 5875 5875 5874 5874 5874 5874 5873 5873 5873 5873 5874 5874 5874 5874 5874 5874 5874 5874 5874 5874 5874 5874 5874 5873 5873 5873 5872 5872 5872
5887 5886 5885 5884 5883 5882 5881 5879 5878 5877 5877 5876 5875 5874 5873 5873 5873 5873 5872 5872 5872 5872 5872 5872 5872 5872 5873 5873 5872 5872 5872 5872 5872 5872 5872 5872 5872 5872 5871 5871 5871 5870 5870
5885 5884 5883 5882 5881 5880 5879 5878 5876 5875 5875 5874 5873 5872 5871 5871 5871 5871 5870 5870 5870 5870 5870 5871 5871 5871 5871 5871 5871 5870 5870 5870 5870 5870 5870 5870 5870 5870 5869 5869 5869 5869 5869
5883 5883 5882 5880 5879 5878 5877 5876 5875 5874 5873 5872 5871 5870 5869 5869 5869 5869 5869 5868 5868 5868 5869 5869 5869 5869 5869 5869 5869 5869 5869 5869 5869 5868 5868 5868 5868 5868 5868 5867 5867 5867 5867
5881 5880 5880 5878 5877 5876 5875 5873 5872 5871 5870 5869 5868 5868 5867 5867 5867 5866 5866 5866 5866 5866 5867 5867 5867 5867 5867 5867 5867 5867 5867 5866 5867 5867 5866 5866 5866 5866 5866 5866 5866 5865 5865
5878 5878 5877 5876 5874 5873 5872 5871 5870 5869 5868 5867 5866 5865 5865 5864 5864 5864 5864 5864 5864 5864 5864 5864 5865 5865 5865 5865 5865 5865 5864 5864 5864 5864 5864 5864 5864 5864 5863 5863 5863 5863 5863
5875 5874 5873 5872 5871 5870 5869 5868 5867 5866 5865 5864 5864 5863 5862 5862 5861 5861 5862 5862 5862 5862 5862 5862 5862 5862 5862 5862 5862 5862 5862 5863 5862 5861 5861 5861 5861 5861 5861 5861 5861 5860 5860
5872 5871 5870 5869 5868 5867 5866 5865 5864 5863 5862 5862 5861 5861 5860 5859 5859 5859 5859 5859 5859 5859 5859 5859 5860 5860 5860 5860 5860 5860 5860 5860 5859 5859 5859 5859 5859 5858 5858 5858 5858 5858 5858
5868 5867 5867 5866 5865 5864 5863 5862 5861 5860 5859 5859 5858 5858 5857 5856 5856 5856 5856 5856 5856 5856 5856 5857 5857 5857 5857 5857 5857 5857 5857 5856 5857 5857 5857 5856 5856 5856 5856 5855 5855 5855 5855
5864 5864 5863 5862 5861 5860 5859 5858 5857 5857 5856 5855 5855 5855 5855 5854 5853 5853 5853 5854 5854 5854 5854 5854 5854 5854 5854 5854 5854 5854 5854 5854 5854 5854 5854 5854 5853 5853 5853 5852 5852 5852 5852
5860 5859 5859 5858 5858 5857 5856 5855 5854 5853 5853 5852 5852 5852 5852 5852 5851 5851 5851 5851 5851 5851 5851 5851 5851 5851 5852 5851 5851 5851 5851 5851 5850 5850 5850 5850 5850 5850 5849 5849 5849 5849 5848